Regional Weather Roundup
Issued by NWS

Home | Current Version | Previous Version | Graphics & Text | Print | Product List | Glossary On
Versions: 1 2 3 4 5 6 7 8 9 10 11 12 13 14 15 16 17 18 19 20 21 22 23 24 25 26 27 28 29 30 31 32 33 34 35 36 37 38 39 40 41 42 43 44 45 46 47 48 49 50
000
ASUS44 KMEG 020400
RWRTN
TENNESSEE HOURLY STATE WEATHER ROUNDUP
NATIONAL WEATHER SERVICE MEMPHIS TN
1100 PM CDT TUE SEP 01 2015

TNZ002-004-019-021-049-052-054-088>092-020500-
WEST TENNESSEE

CITY           SKY/WX    TMP DP  RH WIND       PRES   REMARKS
MEMPHIS INTL   MOCLDY    79  70  74 CALM      30.09S
NWS MEMPHIS      N/A     75 N/A N/A MISG        N/A
JACKSON        CLOUDY    73  71  93 CALM      30.10R
DYERSBURG      CLOUDY    75  72  88 CALM      30.10S
UNION CITY     CLEAR    N/A N/A N/A CALM      30.09S
PARIS          CLEAR     68  66  94 CALM      30.12R
LEXINGTON      CLEAR     72  72 100 CALM      30.10S
$$

TNZ008-025-027-028-033-062-065-066-020500-
NORTH MIDDLE TENNESSEE

CITY           SKY/WX    TMP DP  RH WIND       PRES   REMARKS
NASHVILLE      PTCLDY    75  67  76 CALM      30.12R
CLARKSVILLE    PTCLDY    73  68  84 CALM      30.11R
COOKEVILLE     CLEAR     70  70 100 CALM      30.13S
CROSSVILLE     CLEAR     70  67  90 CALM      30.19S
$$

TNZ061-075-076-078-094-096-097-020500-
SOUTH MIDDLE TENNESSEE

CITY           SKY/WX    TMP DP  RH WIND       PRES   REMARKS
FAYETTEVILLE   CLEAR     72  68  88 CALM      30.13R
TULLAHOMA      CLEAR     70  66  88 CALM      30.15R
WINCHESTER     CLEAR     70  68  94 CALM      30.13S
COLUMBIA       CLEAR     72  72 100 CALM      30.11R
SHELBYVILLE    CLEAR     72  72 100 CALM      30.13R
$$

TNZ017-018-042-046-047-020500-
NORTHEAST TENNESSEE

CITY           SKY/WX    TMP DP  RH WIND       PRES   REMARKS
TRI CITIES     PTCLDY    70  67  90 CALM      30.15S
$$

TNZ012-013-036-069-073-074-020500-
CENTRAL EAST TENNESSEE

CITY           SKY/WX    TMP DP  RH WIND       PRES   REMARKS
KNOXVILLE      MOCLDY    75  70  84 CALM      30.11S
OAK RIDGE      PTCLDY    72  68  87 CALM      30.14R
GATLINBURG     CLEAR     72  64  78 CALM      30.12S
$$

TNZ083-085-099-020500-
SOUTHEAST TENNESSEE

CITY           SKY/WX    TMP DP  RH WIND       PRES   REMARKS
CHATTANOOGA    MOCLDY    76  70  82 CALM      30.11S
$$

SKY/WX REPORTED AS FAIR MEANS FEW OR NO CLOUDS BELOW
12 THOUSAND FEET.



USA.gov is the U.S. government's official web portal to all federal, state and local government web resources and services.